| time (UTC) | temp C | wind direction | speed KPH | gust KPH | rain 1hr cm | rain 24hr cm | rain mn cm | humidity % | barometer mb |
| 20260508065558 | 6 | 157 | 0.0 | 1.6 | 0.00 | 0.00 | 0.00 | 92 | 1014.5 |
| 20260508065055 | 6 | 157 | 0.0 | 1.6 | 0.00 | 0.00 | 0.00 | 92 | 1014.6 |
| 20260508064555 | 6 | 147 | 0.0 | 1.6 | 0.00 | 0.00 | 0.00 | 92 | 1014.6 |
| 20260508064055 | 6 | 147 | 0.0 | 1.6 | 0.00 | 0.00 | 0.00 | 92 | 1014.6 |
| 20260508063553 | 6 | 147 | 0.0 | 1.6 | 0.00 | 0.00 | 0.00 | 92 | 1014.7 |
| 20260508063055 | 6 | 147 | 0.0 | 3.2 | 0.00 | 0.00 | 0.00 | 92 | 1014.7 |
| 20260508062551 | 6 | 147 | 0.0 | 3.2 | 0.00 | 0.00 | 0.00 | 92 | 1014.8 |
| 20260508062052 | 6 | 147 | 0.0 | 3.2 | 0.00 | 0.00 | 0.00 | 92 | 1014.9 |
| 20260508061551 | 6 | 189 | 0.0 | 1.6 | 0.00 | 0.00 | 0.00 | 92 | 1014.8 |
| 20260508061050 | 6 | 189 | 0.0 | 3.2 | 0.00 | 0.00 | 0.00 | 92 | 1015.0 |
| 20260508060651 | 6 | 189 | 1.6 | 3.2 | 0.00 | 0.00 | 0.00 | 92 | 1015.0 |
| 20260508060054 | 6 | 189 | 1.6 | 3.2 | 0.00 | 0.00 | 0.00 | 92 | 1015.1 |
| 20260508055551 | 6 | 189 | 0.0 | 3.2 | 0.00 | 0.00 | 0.00 | 92 | 1015.2 |
| 20260508055051 | 6 | 189 | 0.0 | 3.2 | 0.00 | 0.00 | 0.00 | 92 | 1015.2 |
| 20260508054613 | 6 | 189 | 0.0 | 1.6 | 0.00 | 0.00 | 0.00 | 92 | 1015.1 |
| 20260508054049 | 6 | 189 | 0.0 | 1.6 | 0.00 | 0.00 | 0.00 | 92 | 1015.3 |
| 20260508053552 | 6 | 189 | 0.0 | 1.6 | 0.00 | 0.00 | 0.00 | 92 | 1015.3 |
| 20260508053049 | 6 | 189 | 0.0 | 3.2 | 0.00 | 0.00 | 0.00 | 92 | 1015.3 |
| 20260508052550 | 6 | 189 | 0.0 | 3.2 | 0.00 | 0.00 | 0.00 | 92 | 1015.3 |
| 20260508052047 | 6 | 189 | 0.0 | 1.6 | 0.00 | 0.00 | 0.00 | 92 | 1015.4 |
| 20260508051547 | 6 | 189 | 0.0 | 0.0 | 0.00 | 0.00 | 0.00 | 92 | 1015.5 |
| 20260508051047 | 6 | 189 | 0.0 | 0.0 | 0.00 | 0.00 | 0.00 | 92 | 1015.5 |
| 20260508050646 | 6 | 189 | 0.0 | 1.6 | 0.00 | 0.00 | 0.00 | 92 | 1015.4 |
| 20260508050043 | 6 | 189 | 0.0 | 1.6 | 0.00 | 0.00 | 0.00 | 92 | 1015.3 |
| 20260508045542 | 6 | 189 | 0.0 | 1.6 | 0.00 | 0.00 | 0.00 | 92 | 1015.4 |
| 20260508045042 | 6 | 189 | 0.0 | 1.6 | 0.00 | 0.00 | 0.00 | 92 | 1015.5 |
| 20260508044554 | 6 | 189 | 0.0 | 0.0 | 0.00 | 0.00 | 0.00 | 92 | 1015.6 |
| 20260508044042 | 6 | 189 | 0.0 | 1.6 | 0.00 | 0.00 | 0.00 | 92 | 1015.6 |
| 20260508043543 | 6 | 189 | 0.0 | 1.6 | 0.00 | 0.00 | 0.00 | 92 | 1015.6 |
| 20260508043043 | 6 | 189 | 0.0 | 1.6 | 0.00 | 0.00 | 0.00 | 92 | 1015.7 |
| 20260508042542 | 6 | 189 | 0.0 | 0.0 | 0.00 | 0.00 | 0.00 | 92 | 1015.7 |
| 20260508042041 | 6 | 189 | 0.0 | 1.6 | 0.00 | 0.00 | 0.00 | 91 | 1015.7 |
| 20260508041551 | 6 | 189 | 0.0 | 1.6 | 0.00 | 0.00 | 0.00 | 92 | 1015.7 |
| 20260508041041 | 7 | 189 | 0.0 | 1.6 | 0.00 | 0.00 | 0.00 | 91 | 1015.7 |
| 20260508040643 | 7 | 189 | 0.0 | 1.6 | 0.00 | 0.00 | 0.00 | 91 | 1015.7 |
| 20260508040048 | 7 | 189 | 0.0 | 1.6 | 0.00 | 0.00 | 0.00 | 91 | 1015.7 |
| 20260508035541 | 7 | 189 | 0.0 | 1.6 | 0.00 | 0.00 | 0.00 | 91 | 1015.8 |
| 20260508035041 | 7 | 189 | 0.0 | 1.6 | 0.00 | 0.00 | 0.00 | 91 | 1015.8 |
| 20260508034541 | 7 | 189 | 0.0 | 1.6 | 0.00 | 0.00 | 0.00 | 90 | 1015.9 |
| 20260508034041 | 7 | 189 | 0.0 | 1.6 | 0.00 | 0.00 | 0.00 | 90 | 1015.9 |
| 20260508033541 | 7 | 189 | 0.0 | 1.6 | 0.00 | 0.00 | 0.00 | 90 | 1015.9 |
| 20260508033040 | 7 | 189 | 0.0 | 1.6 | 0.00 | 0.00 | 0.00 | 89 | 1015.8 |
| 20260508032543 | 7 | 189 | 0.0 | 0.0 | 0.00 | 0.00 | 0.00 | 89 | 1015.8 |
| 20260508032042 | 7 | 189 | 0.0 | 0.0 | 0.00 | 0.00 | 0.00 | 89 | 1015.7 |
| 20260508031554 | 7 | 189 | 0.0 | 0.0 | 0.00 | 0.00 | 0.00 | 89 | 1015.6 |
| 20260508031039 | 7 | 189 | 0.0 | 0.0 | 0.00 | 0.00 | 0.00 | 89 | 1015.7 |
| 20260508030639 | 7 | 189 | 0.0 | 0.0 | 0.00 | 0.00 | 0.00 | 88 | 1015.6 |
| 20260508030114 | 7 | 189 | 0.0 | 0.0 | 0.00 | 0.00 | 0.00 | 88 | 1015.5 |
| 20260508025600 | 8 | 189 | 0.0 | 0.0 | 0.00 | 0.00 | 0.00 | 87 | 1015.4 |
| 20260508025100 | 8 | 189 | 0.0 | 0.0 | 0.00 | 0.00 | 0.00 | 87 | 1015.4 |
| 20260508024607 | 8 | 189 | 0.0 | 0.0 | 0.00 | 0.00 | 0.00 | 86 | 1015.4 |
| 20260508024059 | 8 | 189 | 0.0 | 1.6 | 0.00 | 0.00 | 0.00 | 86 | 1015.2 |
| 20260508023558 | 8 | 189 | 0.0 | 1.6 | 0.00 | 0.00 | 0.00 | 85 | 1015.2 |
| 20260508023058 | 8 | 189 | 0.0 | 1.6 | 0.00 | 0.00 | 0.00 | 84 | 1015.1 |
| 20260508022557 | 8 | 189 | 0.0 | 1.6 | 0.00 | 0.00 | 0.00 | 84 | 1015.1 |
| 20260508022057 | 9 | 189 | 0.0 | 1.6 | 0.00 | 0.00 | 0.00 | 83 | 1015.1 |
| 20260508021615 | 9 | 189 | 0.0 | 1.6 | 0.00 | 0.00 | 0.00 | 82 | 1014.9 |
| 20260508021059 | 9 | 189 | 0.0 | 0.0 | 0.00 | 0.00 | 0.00 | 81 | 1014.9 |
| 20260508020656 | 10 | 189 | 0.0 | 0.0 | 0.00 | 0.00 | 0.00 | 80 | 1014.8 |
| 20260508020054 | 10 | 189 | 0.0 | 0.0 | 0.00 | 0.00 | 0.00 | 78 | 1014.7 |
| 20260508015554 | 10 | 189 | 0.0 | 0.0 | 0.00 | 0.00 | 0.00 | 77 | 1014.6 |
| 20260508015053 | 10 | 189 | 0.0 | 0.0 | 0.00 | 0.00 | 0.00 | 76 | 1014.6 |
| 20260508014553 | 10 | 189 | 0.0 | 0.0 | 0.00 | 0.00 | 0.00 | 76 | 1014.5 |
| 20260508014053 | 11 | 189 | 0.0 | 0.0 | 0.00 | 0.00 | 0.00 | 77 | 1014.5 |
| 20260508013552 | 11 | 189 | 0.0 | 0.0 | 0.00 | 0.00 | 0.00 | 76 | 1014.4 |
| 20260508013056 | 11 | 189 | 0.0 | 0.0 | 0.00 | 0.00 | 0.00 | 75 | 1014.4 |
| 20260508012552 | 11 | 189 | 0.0 | 0.0 | 0.00 | 0.00 | 0.00 | 73 | 1014.4 |
| 20260508012055 | 11 | 189 | 0.0 | 0.0 | 0.00 | 0.00 | 0.00 | 73 | 1014.4 |
| 20260508011559 | 12 | 189 | 0.0 | 0.0 | 0.00 | 0.00 | 0.00 | 71 | 1014.3 |
| 20260508011056 | 12 | 189 | 0.0 | 0.0 | 0.00 | 0.00 | 0.00 | 71 | 1014.2 |
| 20260508010654 | 12 | 189 | 0.0 | 0.0 | 0.00 | 0.00 | 0.00 | 70 | 1014.3 |
| 20260508010054 | 12 | 189 | 0.0 | 1.6 | 0.00 | 0.00 | 0.00 | 68 | 1014.2 |
| 20260508005555 | 13 | 189 | 0.0 | 1.6 | 0.00 | 0.00 | 0.00 | 65 | 1014.1 |
| 20260508005058 | 13 | 189 | 0.0 | 1.6 | 0.00 | 0.00 | 0.00 | 62 | 1014.0 |
| 20260508004559 | 14 | 189 | 0.0 | 1.6 | 0.00 | 0.00 | 0.00 | 61 | 1014.1 |
| 20260508004053 | 14 | 190 | 0.0 | 1.6 | 0.00 | 0.00 | 0.00 | 59 | 1014.1 |
| 20260508003552 | 15 | 190 | 0.0 | 3.2 | 0.00 | 0.00 | 0.00 | 59 | 1014.1 |
| 20260508003103 | 16 | 199 | 1.6 | 6.4 | 0.00 | 0.00 | 0.00 | 53 | 1014.0 |
| 20260508002552 | 16 | 230 | 1.6 | 6.4 | 0.00 | 0.00 | 0.00 | 49 | 1014.0 |
| 20260508002051 | 16 | 195 | 1.6 | 3.2 | 0.00 | 0.00 | 0.00 | 49 | 1014.0 |
| 20260508001552 | 16 | 222 | 0.0 | 8.0 | 0.00 | 0.00 | 0.00 | 49 | 1014.0 |
| 20260508001051 | 17 | 240 | 1.6 | 9.7 | 0.00 | 0.00 | 0.00 | 49 | 1013.9 |
| 20260508000651 | 17 | 275 | 1.6 | 9.7 | 0.00 | 0.00 | 0.00 | 48 | 1013.9 |
| 20260508000050 | 17 | 190 | 0.0 | 6.4 | 0.00 | 0.00 | 0.00 | 46 | 1013.9 |
| 20260507235550 | 17 | 163 | 1.6 | 8.0 | 0.00 | 0.00 | 0.00 | 46 | 1013.8 |
| 20260507235049 | 17 | 202 | 1.6 | 8.0 | 0.00 | 0.00 | 0.00 | 47 | 1013.9 |
| 20260507234550 | 17 | 323 | 1.6 | 8.0 | 0.00 | 0.00 | 0.00 | 47 | 1013.9 |
| 20260507234051 | 17 | 310 | 3.2 | 14.5 | 0.00 | 0.00 | 0.00 | 47 | 1013.8 |
| 20260507233548 | 17 | 306 | 1.6 | 14.5 | 0.00 | 0.00 | 0.00 | 47 | 1013.9 |
| 20260507233048 | 17 | 158 | 4.8 | 14.5 | 0.00 | 0.00 | 0.00 | 45 | 1014.0 |
| 20260507232548 | 18 | 260 | 1.6 | 9.7 | 0.00 | 0.00 | 0.00 | 45 | 1014.1 |
| 20260507232047 | 17 | 186 | 3.2 | 12.9 | 0.00 | 0.00 | 0.00 | 45 | 1014.1 |
| 20260507231555 | 18 | 181 | 1.6 | 11.3 | 0.00 | 0.00 | 0.00 | 44 | 1014.1 |
| 20260507231046 | 18 | 307 | 1.6 | 11.3 | 0.00 | 0.00 | 0.00 | 45 | 1014.1 |
| 20260507230646 | 18 | 266 | 1.6 | 8.0 | 0.00 | 0.00 | 0.00 | 46 | 1014.2 |
| 20260507230047 | 17 | 250 | 1.6 | 11.3 | 0.00 | 0.00 | 0.00 | 47 | 1014.2 |
| 20260507225548 | 17 | 157 | 3.2 | 14.5 | 0.00 | 0.00 | 0.00 | 46 | 1014.3 |
| 20260507225048 | 17 | 228 | 6.4 | 14.5 | 0.00 | 0.00 | 0.00 | 43 | 1014.3 |
| 20260507224558 | 17 | 206 | 4.8 | 11.3 | 0.00 | 0.00 | 0.00 | 43 | 1014.4 |
| 20260507224044 | 17 | 198 | 3.2 | 8.0 | 0.00 | 0.00 | 0.00 | 43 | 1014.5 |
| 20260507223549 | 17 | 43 | 1.6 | 16.1 | 0.00 | 0.00 | 0.00 | 44 | 1014.6 |
| 20260507223048 | 18 | 75 | 1.6 | 16.1 | 0.00 | 0.00 | 0.00 | 46 | 1014.6 |
| 20260507222548 | 18 | 154 | 4.8 | 12.9 | 0.00 | 0.00 | 0.00 | 43 | 1014.5 |
| 20260507222044 | 18 | 223 | 4.8 | 22.5 | 0.00 | 0.00 | 0.00 | 46 | 1014.5 |
| 20260507221545 | 18 | 206 | 8.0 | 22.5 | 0.00 | 0.00 | 0.00 | 45 | 1014.6 |
| 20260507221044 | 18 | 209 | 3.2 | 16.1 | 0.00 | 0.00 | 0.00 | 46 | 1014.5 |
| 20260507220644 | 17 | 271 | 0.0 | 8.0 | 0.00 | 0.00 | 0.00 | 46 | 1014.5 |
| 20260507220044 | 17 | 284 | 1.6 | 14.5 | 0.00 | 0.00 | 0.00 | 45 | 1014.6 |
| 20260507215544 | 17 | 261 | 4.8 | 14.5 | 0.00 | 0.00 | 0.00 | 44 | 1014.6 |
| 20260507215043 | 18 | 267 | 1.6 | 17.7 | 0.00 | 0.00 | 0.00 | 46 | 1014.6 |
| 20260507214543 | 18 | 212 | 3.2 | 17.7 | 0.00 | 0.00 | 0.00 | 47 | 1014.6 |
| 20260507214041 | 17 | 283 | 1.6 | 16.1 | 0.00 | 0.00 | 0.00 | 45 | 1014.6 |
| 20260507213541 | 17 | 296 | 6.4 | 16.1 | 0.00 | 0.00 | 0.00 | 43 | 1014.7 |
| 20260507213048 | 18 | 257 | 4.8 | 11.3 | 0.00 | 0.00 | 0.00 | 42 | 1014.8 |
| 20260507212540 | 18 | 313 | 1.6 | 8.0 | 0.00 | 0.00 | 0.00 | 45 | 1014.8 |
| 20260507212039 | 18 | 267 | 1.6 | 12.9 | 0.00 | 0.00 | 0.00 | 48 | 1014.9 |
| 20260507211539 | 17 | 227 | 1.6 | 12.9 | 0.00 | 0.00 | 0.00 | 45 | 1015.0 |
| 20260507211038 | 18 | 267 | 3.2 | 16.1 | 0.00 | 0.00 | 0.00 | 48 | 1015.0 |
| 20260507210640 | 18 | 188 | 1.6 | 16.1 | 0.00 | 0.00 | 0.00 | 43 | 1015.0 |
| 20260507210121 | 18 | 218 | 3.2 | 11.3 | 0.00 | 0.00 | 0.00 | 41 | 1015.0 |
| 20260507205558 | 18 | 253 | 6.4 | 12.9 | 0.00 | 0.00 | 0.00 | 42 | 1015.2 |
| 20260507205058 | 18 | 166 | 1.6 | 19.3 | 0.00 | 0.00 | 0.00 | 46 | 1015.3 |
| 20260507204604 | 18 | 294 | 4.8 | 19.3 | 0.00 | 0.00 | 0.00 | 42 | 1015.2 |
| 20260507204059 | 18 | 327 | 4.8 | 19.3 | 0.00 | 0.00 | 0.00 | 43 | 1015.3 |
| 20260507203556 | 18 | 232 | 6.4 | 16.1 | 0.00 | 0.00 | 0.00 | 43 | 1015.5 |
| 20260507203058 | 19 | 294 | 4.8 | 12.9 | 0.00 | 0.00 | 0.00 | 46 | 1015.5 |
| 20260507202554 | 19 | 254 | 3.2 | 12.9 | 0.00 | 0.00 | 0.00 | 43 | 1015.6 |
| 20260507202056 | 18 | 262 | 3.2 | 20.9 | 0.00 | 0.00 | 0.00 | 44 | 1015.5 |
| 20260507201553 | 18 | 155 | 1.6 | 20.9 | 0.00 | 0.00 | 0.00 | 46 | 1015.7 |
| 20260507201053 | 18 | 190 | 4.8 | 11.3 | 0.00 | 0.00 | 0.00 | 44 | 1015.8 |
| 20260507200652 | 18 | 303 | 3.2 | 11.3 | 0.00 | 0.00 | 0.00 | 46 | 1015.9 |
| 20260507200105 | 18 | 37 | 1.6 | 17.7 | 0.00 | 0.00 | 0.00 | 42 | 1016.1 |
| 20260507195556 | 18 | 223 | 3.2 | 19.3 | 0.00 | 0.00 | 0.00 | 44 | 1016.2 |
| 20260507195053 | 18 | 52 | 4.8 | 19.3 | 0.00 | 0.00 | 0.00 | 41 | 1016.3 |
| 20260507194553 | 18 | 160 | 6.4 | 17.7 | 0.00 | 0.00 | 0.00 | 41 | 1016.1 |
| 20260507194055 | 18 | 172 | 9.7 | 19.3 | 0.00 | 0.00 | 0.00 | 43 | 1016.2 |
| 20260507193552 | 18 | 146 | 8.0 | 24.1 | 0.00 | 0.00 | 0.00 | 42 | 1016.2 |
| 20260507193110 | 18 | 355 | 3.2 | 24.1 | 0.00 | 0.00 | 0.00 | 41 | 1016.2 |
| 20260507192552 | 18 | 279 | 4.8 | 16.1 | 0.00 | 0.00 | 0.00 | 38 | 1016.2 |
| 20260507192053 | 18 | 207 | 1.6 | 16.1 | 0.00 | 0.00 | 0.00 | 47 | 1016.3 |
| 20260507191557 | 18 | 355 | 3.2 | 12.9 | 0.00 | 0.00 | 0.00 | 43 | 1016.4 |
| 20260507191050 | 17 | 272 | 4.8 | 17.7 | 0.00 | 0.00 | 0.00 | 42 | 1016.4 |
| 20260507190649 | 17 | 300 | 8.0 | 17.7 | 0.00 | 0.00 | 0.00 | 41 | 1016.5 |
| 20260507190054 | 18 | 341 | 6.4 | 22.5 | 0.00 | 0.00 | 0.00 | 42 | 1016.5 |
| 20260507185552 | 17 | 256 | 6.4 | 20.9 | 0.00 | 0.00 | 0.00 | 45 | 1016.5 |
| 20260507185052 | 17 | 207 | 4.8 | 16.1 | 0.00 | 0.00 | 0.00 | 40 | 1016.6 |
| 20260507184551 | 17 | 176 | 3.2 | 11.3 | 0.00 | 0.00 | 0.00 | 46 | 1016.7 |
| 20260507184047 | 17 | 290 | 3.2 | 16.1 | 0.00 | 0.00 | 0.00 | 43 | 1016.8 |
| 20260507183546 | 17 | 288 | 8.0 | 16.1 | 0.00 | 0.00 | 0.00 | 48 | 1016.9 |
| 20260507183057 | 17 | 288 | 4.8 | 16.1 | 0.00 | 0.00 | 0.00 | 47 | 1016.9 |
| 20260507182545 | 17 | 140 | 4.8 | 12.9 | 0.00 | 0.00 | 0.00 | 41 | 1016.8 |
| 20260507182045 | 17 | 192 | 0.0 | 12.9 | 0.00 | 0.00 | 0.00 | 49 | 1016.9 |
| 20260507181544 | 16 | 157 | 1.6 | 16.1 | 0.00 | 0.00 | 0.00 | 38 | 1016.9 |
| 20260507181043 | 17 | 173 | 8.0 | 19.3 | 0.00 | 0.00 | 0.00 | 43 | 1016.9 |
| 20260507180643 | 17 | 248 | 3.2 | 19.3 | 0.00 | 0.00 | 0.00 | 42 | 1016.9 |
| 20260507180050 | 16 | 329 | 1.6 | 8.0 | 0.00 | 0.00 | 0.00 | 38 | 1017.0 |
| 20260507175555 | 17 | 355 | 1.6 | 11.3 | 0.00 | 0.00 | 0.00 | 48 | 1017.2 |
| 20260507175048 | 16 | 255 | 4.8 | 12.9 | 0.00 | 0.00 | 0.00 | 48 | 1017.4 |
| 20260507174548 | 16 | 338 | 4.8 | 12.9 | 0.00 | 0.00 | 0.00 | 44 | 1017.4 |
| 20260507174046 | 17 | 304 | 3.2 | 14.5 | 0.00 | 0.00 | 0.00 | 43 | 1017.5 |
| 20260507173550 | 16 | 202 | 4.8 | 14.5 | 0.00 | 0.00 | 0.00 | 43 | 1017.6 |
| 20260507173112 | 16 | 209 | 1.6 | 12.9 | 0.00 | 0.00 | 0.00 | 48 | 1017.6 |
| 20260507172545 | 16 | 307 | 6.4 | 12.9 | 0.00 | 0.00 | 0.00 | 47 | 1017.7 |
| 20260507172044 | 16 | 316 | 1.6 | 16.1 | 0.00 | 0.00 | 0.00 | 46 | 1017.7 |
| 20260507171546 | 16 | 228 | 1.6 | 16.1 | 0.00 | 0.00 | 0.00 | 52 | 1017.8 |
| 20260507171041 | 16 | 178 | 3.2 | 11.3 | 0.00 | 0.00 | 0.00 | 44 | 1017.8 |
| 20260507170641 | 16 | 239 | 1.6 | 17.7 | 0.00 | 0.00 | 0.00 | 41 | 1017.9 |
| 20260507170050 | 16 | 284 | 8.0 | 19.3 | 0.00 | 0.00 | 0.00 | 45 | 1017.9 |
| 20260507165546 | 16 | 277 | 8.0 | 19.3 | 0.00 | 0.00 | 0.00 | 44 | 1018.1 |
| 20260507165045 | 16 | 292 | 3.2 | 14.5 | 0.00 | 0.00 | 0.00 | 44 | 1018.1 |
| 20260507164553 | 15 | 304 | 1.6 | 17.7 | 0.00 | 0.00 | 0.00 | 51 | 1018.3 |
| 20260507164043 | 16 | 313 | 4.8 | 17.7 | 0.00 | 0.00 | 0.00 | 46 | 1018.3 |
| 20260507163542 | 16 | 305 | 6.4 | 12.9 | 0.00 | 0.00 | 0.00 | 47 | 1018.4 |
| 20260507163041 | 16 | 250 | 0.0 | 11.3 | 0.00 | 0.00 | 0.00 | 49 | 1018.4 |
| 20260507162540 | 15 | 163 | 0.0 | 12.9 | 0.00 | 0.00 | 0.00 | 50 | 1018.4 |
| 20260507162039 | 15 | 360 | 4.8 | 12.9 | 0.00 | 0.00 | 0.00 | 54 | 1018.5 |
| 20260507161540 | 15 | 292 | 6.4 | 12.9 | 0.00 | 0.00 | 0.00 | 49 | 1018.6 |
| 20260507161038 | 15 | 181 | 6.4 | 12.9 | 0.00 | 0.00 | 0.00 | 46 | 1018.5 |
| 20260507160509 | 15 | 286 | 1.6 | 9.7 | 0.00 | 0.00 | 0.00 | 54 | 1018.5 |
| 20260507160012 | 15 | 319 | 6.4 | 16.1 | 0.00 | 0.00 | 0.00 | 48 | 1018.6 |
| 20260507155509 | 15 | 215 | 6.4 | 16.1 | 0.00 | 0.00 | 0.00 | 50 | 1018.5 |
| 20260507155006 | 15 | 171 | 3.2 | 12.9 | 0.00 | 0.00 | 0.00 | 53 | 1018.5 |
| 20260507154608 | 15 | 194 | 3.2 | 12.9 | 0.00 | 0.00 | 0.00 | 52 | 1018.5 |
| 20260507154003 | 15 | 215 | 0.0 | 6.4 | 0.00 | 0.00 | 0.00 | 55 | 1018.6 |
| 20260507153504 | 15 | 166 | 1.6 | 16.1 | 0.00 | 0.00 | 0.00 | 49 | 1018.7 |
| 20260507153101 | 15 | 279 | 6.4 | 16.1 | 0.00 | 0.00 | 0.00 | 51 | 1018.7 |
| 20260507152558 | 14 | 190 | 3.2 | 6.4 | 0.00 | 0.00 | 0.00 | 54 | 1018.7 |
| 20260507152057 | 15 | 315 | 0.0 | 12.9 | 0.00 | 0.00 | 0.00 | 53 | 1018.8 |
| 20260507151556 | 13 | 233 | 4.8 | 12.9 | 0.00 | 0.00 | 0.00 | 51 | 1018.9 |
| 20260507151056 | 13 | 146 | 3.2 | 9.7 | 0.00 | 0.00 | 0.00 | 50 | 1018.8 |
| 20260507150509 | 13 | 259 | 3.2 | 9.7 | 0.00 | 0.00 | 0.00 | 53 | 1018.9 |
| 20260507150010 | 13 | 222 | 1.6 | 12.9 | 0.00 | 0.00 | 0.00 | 53 | 1018.9 |
| 20260507145508 | 14 | 219 | 3.2 | 12.9 | 0.00 | 0.00 | 0.00 | 60 | 1018.9 |
| 20260507145007 | 13 | 130 | 4.8 | 9.7 | 0.00 | 0.00 | 0.00 | 61 | 1019.0 |
| 20260507144508 | 13 | 199 | 3.2 | 11.3 | 0.00 | 0.00 | 0.00 | 54 | 1019.0 |
| 20260507144002 | 13 | 229 | 1.6 | 11.3 | 0.00 | 0.00 | 0.00 | 60 | 1019.0 |
| 20260507143600 | 13 | 194 | 4.8 | 9.7 | 0.00 | 0.00 | 0.00 | 59 | 1018.9 |
| 20260507143110 | 13 | 261 | 3.2 | 8.0 | 0.00 | 0.00 | 0.00 | 61 | 1019.0 |
| 20260507142558 | 12 | 217 | 1.6 | 8.0 | 0.00 | 0.00 | 0.00 | 69 | 1019.0 |
| 20260507142057 | 12 | 178 | 1.6 | 8.0 | 0.00 | 0.00 | 0.00 | 73 | 1019.1 |
| 20260507141613 | 11 | 225 | 1.6 | 11.3 | 0.00 | 0.00 | 0.00 | 77 | 1019.1 |
| 20260507141054 | 10 | 215 | 3.2 | 11.3 | 0.00 | 0.00 | 0.00 | 87 | 1019.1 |
| 20260507140508 | 10 | 208 | 3.2 | 9.7 | 0.00 | 0.00 | 0.00 | 93 | 1019.1 |
| 20260507140006 | 8 | 164 | 1.6 | 9.7 | 0.00 | 0.00 | 0.00 | 96 | 1019.2 |
| 20260507135504 | 8 | 176 | 1.6 | 9.7 | 0.00 | 0.00 | 0.00 | 97 | 1019.2 |
| 20260507135001 | 8 | 168 | 3.2 | 8.0 | 0.00 | 0.00 | 0.00 | 97 | 1019.1 |
| 20260507134609 | 7 | 194 | 1.6 | 4.8 | 0.00 | 0.00 | 0.00 | 97 | 1019.2 |
| 20260507134057 | 7 | 173 | 1.6 | 4.8 | 0.00 | 0.00 | 0.00 | 97 | 1019.2 |
| 20260507133556 | 7 | 202 | 1.6 | 4.8 | 0.00 | 0.00 | 0.00 | 97 | 1019.3 |
| 20260507133055 | 7 | 168 | 1.6 | 4.8 | 0.00 | 0.00 | 0.00 | 97 | 1019.2 |
| 20260507132554 | 6 | 131 | 0.0 | 4.8 | 0.00 | 0.00 | 0.00 | 97 | 1019.1 |
| 20260507132052 | 6 | 146 | 0.0 | 3.2 | 0.00 | 0.00 | 0.00 | 96 | 1019.1 |
| 20260507131551 | 6 | 215 | 0.0 | 3.2 | 0.00 | 0.00 | 0.00 | 97 | 1019.2 |
| 20260507131050 | 5 | 218 | 0.0 | 3.2 | 0.00 | 0.00 | 0.00 | 96 | 1019.0 |
| 20260507130648 | 5 | 184 | 1.6 | 3.2 | 0.00 | 0.00 | 0.00 | 96 | 1019.2 |
| 20260507130054 | 5 | 90 | 0.0 | 1.6 | 0.00 | 0.00 | 0.00 | 96 | 1019.1 |
| 20260507125552 | 4 | 90 | 0.0 | 1.6 | 0.00 | 0.00 | 0.00 | 96 | 1019.2 |
| 20260507125053 | 4 | 90 | 0.0 | 1.6 | 0.00 | 0.00 | 0.00 | 96 | 1019.1 |
| 20260507124551 | 4 | 90 | 0.0 | 0.0 | 0.00 | 0.00 | 0.00 | 96 | 1019.1 |
| 20260507124048 | 3 | 90 | 0.0 | 0.0 | 0.00 | 0.00 | 0.00 | 96 | 1019.1 |
| 20260507123548 | 3 | 90 | 0.0 | 0.0 | 0.00 | 0.00 | 0.00 | 96 | 1019.0 |
| 20260507123050 | 3 | 90 | 0.0 | 0.0 | 0.00 | 0.00 | 0.00 | 96 | 1019.1 |
| 20260507122547 | 3 | 90 | 0.0 | 0.0 | 0.00 | 0.00 | 0.00 | 96 | 1019.2 |
| 20260507122047 | 3 | 90 | 0.0 | 0.0 | 0.00 | 0.00 | 0.00 | 96 | 1019.0 |
| 20260507121546 | 3 | 90 | 0.0 | 0.0 | 0.00 | 0.00 | 0.00 | 96 | 1019.1 |
| 20260507121046 | 3 | 90 | 0.0 | 0.0 | 0.00 | 0.00 | 0.00 | 96 | 1019.0 |
| 20260507120645 | 3 | 90 | 0.0 | 0.0 | 0.00 | 0.00 | 0.00 | 95 | 1019.0 |
| 20260507120052 | 2 | 90 | 0.0 | 0.0 | 0.00 | 0.00 | 0.00 | 96 | 1018.9 |
| 20260507115550 | 2 | 90 | 0.0 | 0.0 | 0.00 | 0.00 | 0.00 | 96 | 1018.7 |
| 20260507115051 | 2 | 90 | 0.0 | 0.0 | 0.00 | 0.00 | 0.00 | 95 | 1018.7 |
| 20260507114555 | 2 | 90 | 0.0 | 0.0 | 0.00 | 0.00 | 0.00 | 95 | 1018.8 |
| 20260507114048 | 2 | 90 | 0.0 | 0.0 | 0.00 | 0.00 | 0.00 | 95 | 1018.6 |
| 20260507113547 | 2 | 90 | 0.0 | 0.0 | 0.00 | 0.00 | 0.00 | 95 | 1018.6 |
| 20260507113049 | 2 | 90 | 0.0 | 0.0 | 0.00 | 0.00 | 0.00 | 95 | 1018.5 |
| 20260507112545 | 2 | 90 | 0.0 | 0.0 | 0.00 | 0.00 | 0.00 | 95 | 1018.4 |
| 20260507112044 | 1 | 90 | 0.0 | 0.0 | 0.00 | 0.00 | 0.00 | 95 | 1018.4 |
| 20260507111554 | 1 | 90 | 0.0 | 0.0 | 0.00 | 0.00 | 0.00 | 95 | 1018.4 |
| 20260507111041 | 1 | 90 | 0.0 | 0.0 | 0.00 | 0.00 | 0.00 | 95 | 1018.4 |
| 20260507110644 | 1 | 90 | 0.0 | 0.0 | 0.00 | 0.00 | 0.00 | 95 | 1018.3 |
| 20260507110041 | 1 | 90 | 0.0 | 1.6 | 0.00 | 0.00 | 0.00 | 95 | 1018.3 |
| 20260507105540 | 1 | 90 | 0.0 | 1.6 | 0.00 | 0.00 | 0.00 | 95 | 1018.2 |
| 20260507105040 | 1 | 90 | 0.0 | 0.0 | 0.00 | 0.00 | 0.00 | 95 | 1018.1 |
| 20260507104540 | 1 | 90 | 0.0 | 0.0 | 0.00 | 0.00 | 0.00 | 95 | 1018.0 |
| 20260507104040 | 1 | 90 | 0.0 | 0.0 | 0.00 | 0.00 | 0.00 | 95 | 1017.9 |
| 20260507103539 | 1 | 90 | 0.0 | 0.0 | 0.00 | 0.00 | 0.00 | 95 | 1018.1 |
| 20260507103039 | 1 | 90 | 0.0 | 0.0 | 0.00 | 0.00 | 0.00 | 95 | 1018.2 |
| 20260507102539 | 1 | 90 | 0.0 | 0.0 | 0.00 | 0.00 | 0.00 | 95 | 1018.1 |
| 20260507102041 | 1 | 90 | 0.0 | 0.0 | 0.00 | 0.00 | 0.00 | 95 | 1018.1 |
| 20260507101543 | 1 | 90 | 0.0 | 0.0 | 0.00 | 0.00 | 0.00 | 95 | 1018.0 |
| 20260507101038 | 1 | 90 | 0.0 | 0.0 | 0.00 | 0.00 | 0.00 | 95 | 1017.8 |
| 20260507100639 | 1 | 90 | 0.0 | 0.0 | 0.00 | 0.00 | 0.00 | 95 | 1018.0 |
| 20260507100057 | 1 | 90 | 0.0 | 0.0 | 0.00 | 0.00 | 0.00 | 95 | 1018.2 |
| 20260507095557 | 1 | 90 | 0.0 | 0.0 | 0.00 | 0.00 | 0.00 | 95 | 1018.2 |
| 20260507095056 | 1 | 90 | 0.0 | 0.0 | 0.00 | 0.00 | 0.00 | 95 | 1018.0 |
| 20260507094556 | 1 | 90 | 0.0 | 0.0 | 0.00 | 0.00 | 0.00 | 95 | 1017.9 |
| 20260507094056 | 1 | 90 | 0.0 | 1.6 | 0.00 | 0.00 | 0.00 | 95 | 1017.7 |
| 20260507093554 | 1 | 90 | 0.0 | 1.6 | 0.00 | 0.00 | 0.00 | 95 | 1017.7 |
| 20260507093058 | 1 | 90 | 0.0 | 0.0 | 0.00 | 0.00 | 0.00 | 95 | 1017.9 |
| 20260507092554 | 1 | 90 | 0.0 | 0.0 | 0.00 | 0.00 | 0.00 | 95 | 1018.1 |
| 20260507092055 | 1 | 90 | 0.0 | 0.0 | 0.00 | 0.00 | 0.00 | 95 | 1018.1 |
| 20260507091555 | 1 | 90 | 0.0 | 1.6 | 0.00 | 0.00 | 0.00 | 95 | 1018.0 |
| 20260507091053 | 1 | 90 | 0.0 | 1.6 | 0.00 | 0.00 | 0.00 | 95 | 1018.1 |
| 20260507090653 | 1 | 71 | 0.0 | 1.6 | 0.00 | 0.00 | 0.00 | 95 | 1017.9 |
| 20260507085555 | 1 | 42 | 0.0 | 1.6 | 0.00 | 0.00 | 0.00 | 95 | 1018.2 |
| 20260507085053 | 1 | 36 | 0.0 | 1.6 | 0.00 | 0.00 | 0.00 | 95 | 1018.2 |
| 20260507084553 | 1 | 36 | 0.0 | 1.6 | 0.00 | 0.00 | 0.00 | 95 | 1018.2 |
| 20260507084053 | 2 | 36 | 0.0 | 1.6 | 0.00 | 0.00 | 0.00 | 95 | 1018.2 |
| 20260507083552 | 2 | 36 | 0.0 | 1.6 | 0.00 | 0.00 | 0.00 | 95 | 1018.3 |
| 20260507083052 | 2 | 360 | 0.0 | 0.0 | 0.00 | 0.00 | 0.00 | 95 | 1018.4 |
| 20260507082553 | 2 | 360 | 0.0 | 0.0 | 0.00 | 0.00 | 0.00 | 95 | 1018.4 |
| 20260507082050 | 2 | 360 | 0.0 | 0.0 | 0.00 | 0.00 | 0.00 | 95 | 1018.4 |
| 20260507081550 | 2 | 360 | 0.0 | 0.0 | 0.00 | 0.00 | 0.00 | 95 | 1018.5 |
| 20260507081050 | 2 | 360 | 0.0 | 0.0 | 0.00 | 0.00 | 0.00 | 95 | 1018.5 |
| 20260507080649 | 2 | 360 | 0.0 | 0.0 | 0.00 | 0.00 | 0.00 | 95 | 1018.5 |
| 20260507080049 | 2 | 360 | 0.0 | 0.0 | 0.00 | 0.00 | 0.00 | 95 | 1018.4 |
| 20260507075552 | 2 | 360 | 0.0 | 0.0 | 0.00 | 0.00 | 0.00 | 95 | 1018.5 |
| 20260507075049 | 2 | 360 | 0.0 | 0.0 | 0.00 | 0.00 | 0.00 | 95 | 1018.4 |
| 20260507074554 | 2 | 360 | 0.0 | 0.0 | 0.00 | 0.00 | 0.00 | 95 | 1018.4 |
| 20260507074048 | 2 | 360 | 0.0 | 0.0 | 0.00 | 0.00 | 0.00 | 95 | 1018.2 |
| 20260507073547 | 2 | 360 | 0.0 | 0.0 | 0.00 | 0.00 | 0.00 | 95 | 1018.3 |
| 20260507073046 | 2 | 360 | 0.0 | 0.0 | 0.00 | 0.00 | 0.00 | 95 | 1018.2 |
| 20260507072547 | 2 | 360 | 0.0 | 0.0 | 0.00 | 0.00 | 0.00 | 95 | 1018.3 |
| 20260507072045 | 2 | 360 | 0.0 | 0.0 | 0.00 | 0.00 | 0.00 | 95 | 1018.3 |
| 20260507071546 | 2 | 360 | 0.0 | 0.0 | 0.00 | 0.00 | 0.00 | 95 | 1018.3 |
| 20260507071047 | 2 | 360 | 0.0 | 0.0 | 0.00 | 0.00 | 0.00 | 95 | 1018.1 |
| 20260507070647 | 2 | 360 | 0.0 | 0.0 | 0.00 | 0.00 | 0.00 | 95 | 1018.2 |
| 20260507070050 | 2 | 360 | 0.0 | 0.0 | 0.00 | 0.00 | 0.00 | 95 | 1018.1 |